Wind_Speed
12 13 13 14 16 17 18 18 18 18 17 15 14 13 13 13 14 14 14 13 13 12 12 11 11 11 11 11 10 10 10 10 10 9 9 9 9 9 8 7 7 6
13 13 13 14 14 15 16 17 18 17 17 15 15 14 14 14 15 15 14 13 13 13 12 12 11 11 11 11 10 9 9 9 9 9 9 9 8 8 7 7 6 6
14 15 14 14 14 14 15 16 16 16 16 16 15 15 15 15 16 15 15 14 13 12 12 12 12 11 11 11 10 10 10 9 9 9 8 8 8 8 7 7 7 7
15 15 16 16 15 15 15 15 15 15 16 16 16 16 16 17 16 16 15 14 13 12 12 12 12 11 11 11 11 11 10 10 10 9 9 8 8 8 8 8 8 8
16 16 16 17 17 17 16 16 16 16 16 17 17 17 17 17 16 16 15 14 13 13 13 12 12 12 12 12 11 11 11 11 11 10 10 10 9 9 9 9 9 9
18 18 17 17 18 18 18 18 18 17 17 18 18 18 17 17 16 16 15 15 14 14 13 13 13 12 12 12 11 10 10 10 11 11 10 11 10 10 10 10 10 10
20 19 19 19 19 19 19 19 19 18 18 18 18 18 18 17 16 15 15 15 15 15 14 14 14 13 13 12 11 11 10 10 11 11 11 11 11 11 11 11 12 11
21 21 21 21 20 20 20 19 19 19 19 19 19 18 18 17 16 15 15 15 15 16 15 15 15 14 14 13 12 12 11 11 12 12 11 11 11 11 11 12 13 13
23 23 23 23 22 22 21 21 21 20 20 19 19 19 18 18 17 16 16 16 16 16 16 16 16 15 15 14 14 13 12 13 13 13 12 12 12 12 12 13 14 14
24 24 25 24 24 24 23 22 23 22 21 21 20 20 19 19 18 18 17 17 17 17 17 17 17 17 16 15 15 14 14 14 15 14 14 13 13 14 15 15 16 16
26 26 25 25 25 25 24 23 23 23 23 22 22 21 20 20 19 19 19 18 18 18 18 18 18 18 17 16 16 16 16 16 16 15 15 15 15 16 17 17 18 18
28 27 27 26 26 25 25 25 25 25 24 24 24 23 22 22 21 21 20 20 20 20 19 19 18 18 18 17 17 18 18 17 17 16 16 16 16 18 19 19 19 19
30 29 28 27 26 25 25 25 26 26 25 25 25 24 24 24 23 22 22 21 21 21 21 20 19 19 19 19 19 19 18 18 18 17 17 17 19 20 20 19 20 19
30 30 30 29 28 27 26 26 26 26 27 27 26 25 25 25 24 24 23 23 23 22 22 21 20 20 20 20 20 19 19 19 18 18 18 19 20 21 20 19 19 18
31 31 32 31 30 29 28 27 27 26 27 27 26 25 26 25 25 26 25 24 23 23 22 22 21 21 21 21 20 20 20 20 19 19 19 20 21 21 20 20 19 17
33 33 33 33 32 31 30 29 29 28 28 27 27 27 27 26 26 26 25 25 24 23 23 23 22 23 22 21 21 21 21 20 20 20 19 20 21 21 20 20 19 18
36 35 34 33 33 32 32 31 31 30 29 28 28 28 28 28 27 27 26 26 25 24 24 24 24 23 22 21 22 22 21 21 21 21 21 21 20 20 20 21 20 19
37 36 34 34 34 33 33 33 32 32 31 29 29 29 29 29 28 27 27 26 26 26 25 24 25 24 22 22 22 22 22 22 22 22 22 22 21 21 21 21 21 23
38 37 36 34 34 34 34 34 33 32 31 31 30 30 30 30 29 28 28 26 26 26 25 26 26 24 22 23 23 23 23 23 24 24 24 24 23 22 22 23 24 24
40 39 38 36 35 35 35 35 34 33 32 33 33 32 31 31 30 30 29 27 27 26 26 28 28 24 23 24 24 24 24 24 24 25 25 25 24 23 24 26 26 26
41 41 40 38 37 36 36 36 35 34 34 34 33 33 33 33 33 31 30 29 29 28 29 30 28 25 25 25 24 24 25 25 26 25 25 25 25 25 25 27 28 27
39 42 43 42 40 37 37 37 36 36 35 35 34 35 35 35 35 34 33 33 32 31 32 32 29 27 26 26 25 26 26 26 27 26 25 25 25 25 26 28 28 29
36 40 43 44 42 40 39 39 38 37 36 35 35 35 35 35 36 36 35 35 34 34 35 34 30 28 28 27 26 27 27 27 27 26 25 25 26 27 28 29 29 30
33 36 40 43 42 41 40 39 39 38 38 37 37 37 37 36 36 36 36 36 35 35 36 35 31 29 29 28 27 27 27 27 27 26 26 27 27 28 29 30 31 31
30 32 36 40 40 40 40 39 38 37 36 37 38 39 38 37 35 35 35 36 36 35 35 35 32 30 30 28 27 26 27 28 28 28 28 28 28 28 29 29 29 29
27 29 33 36 37 37 37 36 36 36 36 37 38 38 37 36 35 36 35 34 34 34 33 33 32 30 29 27 26 26 27 29 29 28 28 27 28 28 28 27 26 26
Wind_Direction
182 180 183 186 190 193 195 198 201 204 208 214 215 215 216 216 219 222 223 226 231 235 239 243 246 249 251 253 254 255 259 263 267 271 272 272 275 279 285 291 291 285
186 184 185 186 189 193 195 199 202 205 210 212 214 217 217 218 222 224 226 229 234 239 242 244 246 248 249 250 250 251 254 259 263 267 271 273 275 279 288 297 296 293
197 190 189 191 195 198 201 205 207 208 211 212 214 217 219 221 224 227 229 231 235 239 242 245 247 248 249 250 250 250 252 255 259 265 272 274 275 279 287 294 296 295
214 205 197 194 197 203 206 210 212 213 216 217 217 220 222 224 227 230 231 231 231 235 239 242 246 248 251 253 254 255 255 257 258 263 269 272 275 281 286 288 288 289
221 219 212 204 200 202 206 210 213 216 219 221 222 223 224 226 227 228 230 228 227 230 235 238 242 244 248 253 259 262 263 264 264 264 267 271 275 280 284 285 283 282
219 221 221 218 212 207 206 209 213 216 219 221 223 225 225 226 226 225 226 225 225 228 232 235 237 239 244 250 256 262 265 268 270 270 271 271 274 277 278 279 279 279
219 219 220 221 221 219 215 212 214 216 219 221 223 225 225 226 226 227 227 227 228 230 232 233 234 235 241 247 251 253 255 262 267 270 270 270 272 273 272 275 276 277
220 220 220 220 221 224 225 223 221 220 222 224 225 227 228 229 230 230 231 231 232 234 235 235 236 236 241 245 248 250 251 256 261 264 264 265 267 268 270 272 274 276
220 221 223 223 222 223 226 228 229 228 228 228 228 230 232 234 236 237 237 237 237 239 239 239 240 241 243 246 248 251 253 254 256 259 261 262 263 265 265 265 267 269
221 223 223 224 224 225 226 228 232 234 234 232 232 233 234 236 238 241 243 244 243 242 241 241 243 245 247 250 252 255 256 255 254 256 258 260 262 264 265 265 267 266
220 223 224 224 225 227 227 229 231 234 236 236 235 235 236 237 239 242 245 247 247 246 243 243 244 247 251 254 256 258 258 256 255 255 257 259 261 265 267 268 272 274
219 221 224 225 225 226 228 229 231 233 236 238 239 239 237 237 239 241 243 245 247 247 246 245 245 247 251 254 257 259 259 259 259 260 262 265 266 267 270 273 277 280
222 221 223 223 224 225 226 228 230 232 234 236 238 240 240 239 239 240 242 243 245 246 245 245 246 248 250 253 256 259 261 262 264 266 269 273 274 273 276 280 282 285
226 224 223 222 222 222 224 226 228 231 233 234 236 238 240 241 241 242 242 243 244 244 244 243 244 247 250 253 256 258 260 262 264 268 273 277 278 278 280 281 281 284
228 226 225 223 222 222 222 224 226 228 230 232 233 235 237 238 239 241 242 244 245 245 244 244 244 246 249 252 253 255 258 261 264 269 273 275 276 276 278 279 279 282
228 228 227 225 224 224 223 223 225 227 228 230 231 233 234 235 236 238 240 243 244 245 245 246 246 246 248 250 251 252 255 260 265 269 271 272 272 273 274 276 278 280
229 229 228 227 226 225 225 224 225 226 227 229 231 232 234 234 234 236 238 241 243 244 245 246 248 249 249 250 250 252 256 261 265 268 270 270 270 271 272 274 277 282
230 230 229 228 227 227 227 226 227 228 229 230 232 234 235 236 236 237 237 238 240 242 244 246 248 248 249 250 251 254 259 264 267 270 271 270 270 270 271 273 276 279
230 230 229 229 229 229 229 229 229 230 231 232 233 234 235 236 237 237 237 237 238 240 242 245 247 246 247 249 252 255 260 265 269 271 272 272 271 271 273 275 275 276
230 231 230 230 231 231 232 232 232 232 233 233 234 235 236 237 238 238 238 237 237 238 240 243 246 247 248 249 252 255 259 263 267 270 272 272 272 272 275 279 282 285
229 230 230 230 231 231 232 233 233 235 235 234 234 235 236 238 239 240 241 240 239 239 242 244 247 248 249 251 252 254 257 260 263 266 269 271 271 272 275 279 283 286
229 229 228 228 228 229 230 231 234 237 238 236 236 236 237 238 239 240 241 242 242 242 244 245 247 250 252 253 253 254 255 257 260 262 265 268 270 273 275 277 279 280
231 228 226 225 226 227 229 231 234 237 238 237 236 235 236 237 239 240 241 243 243 244 246 246 246 250 254 255 255 256 255 256 258 260 262 265 268 270 272 274 277 280
234 230 225 223 223 225 228 231 235 237 238 239 238 237 236 236 238 240 241 242 243 244 247 249 248 250 253 255 255 256 256 257 258 259 260 262 265 268 272 276 279 281
234 229 223 220 220 222 226 230 235 236 236 237 237 236 235 235 238 240 241 241 242 244 248 250 249 249 250 250 251 253 256 258 258 258 259 260 264 269 274 277 279 280
230 225 220 217 218 221 224 229 234 235 235 235 236 237 238 240 242 244 243 241 239 240 244 246 248 248 247 246 247 251 255 257 258 259 259 262 267 273 277 279 281 281
Height
3191 3192 3193 3195 3196 3198 3199 3200 3202 3203 3205 3206 3207 3208 3208 3209 3210 3211 3211 3212 3213 3214 3214 3215 3215 3215 3216 3216 3217 3217 3217 3218 3218 3218 3219 3219 3218 3218 3218 3218 3218 3218
3191 3192 3193 3194 3196 3197 3199 3200 3201 3202 3204 3205 3206 3206 3207 3208 3209 3210 3210 3211 3212 3213 3213 3214 3214 3215 3215 3215 3216 3216 3217 3217 3217 3218 3218 3218 3218 3218 3218 3218 3218 3218
3191 3191 3192 3194 3195 3196 3198 3199 3200 3201 3202 3203 3204 3205 3206 3207 3208 3208 3209 3210 3211 3211 3212 3213 3213 3214 3214 3214 3215 3216 3216 3216 3217 3217 3217 3217 3217 3217 3217 3217 3217 3217
3190 3191 3192 3192 3194 3195 3197 3198 3199 3200 3201 3202 3203 3204 3205 3206 3206 3207 3208 3209 3210 3210 3211 3212 3212 3213 3213 3214 3214 3215 3215 3215 3216 3216 3216 3216 3217 3217 3217 3217 3217 3217
3189 3190 3191 3192 3192 3194 3195 3197 3198 3199 3200 3201 3202 3203 3204 3204 3205 3206 3207 3207 3208 3209 3210 3210 3211 3212 3212 3212 3213 3214 3214 3215 3215 3215 3215 3215 3216 3216 3216 3216 3216 3216
3188 3189 3190 3192 3192 3193 3194 3195 3196 3198 3199 3200 3201 3202 3202 3203 3204 3205 3205 3206 3207 3207 3208 3209 3210 3210 3211 3211 3212 3213 3213 3213 3213 3214 3214 3214 3215 3215 3215 3215 3215 3215
3186 3187 3189 3190 3191 3192 3193 3194 3195 3196 3197 3198 3199 3200 3201 3202 3203 3203 3204 3205 3205 3206 3207 3208 3208 3209 3209 3210 3211 3211 3212 3212 3212 3212 3213 3213 3214 3214 3214 3214 3214 3214
3184 3185 3186 3188 3189 3191 3192 3193 3194 3195 3196 3197 3198 3199 3200 3201 3202 3202 3203 3204 3204 3205 3206 3206 3207 3207 3208 3208 3209 3210 3210 3211 3211 3211 3212 3212 3212 3213 3213 3213 3213 3213
3182 3183 3184 3186 3187 3188 3190 3192 3193 3193 3194 3195 3197 3197 3198 3199 3200 3201 3201 3202 3203 3204 3205 3205 3205 3206 3207 3207 3208 3208 3209 3209 3209 3209 3210 3210 3211 3211 3211 3211 3211 3211
3180 3180 3182 3183 3185 3186 3188 3189 3190 3192 3193 3194 3195 3195 3196 3197 3198 3199 3200 3201 3202 3202 3203 3204 3204 3205 3205 3206 3206 3207 3207 3208 3208 3208 3208 3209 3209 3209 3209 3209 3209 3209
3177 3178 3179 3181 3182 3184 3185 3187 3188 3189 3190 3192 3193 3194 3194 3195 3196 3197 3198 3199 3200 3201 3201 3202 3202 3203 3204 3204 3205 3206 3206 3206 3207 3207 3207 3207 3208 3208 3207 3207 3207 3208
3174 3176 3177 3179 3180 3182 3183 3184 3186 3187 3188 3189 3191 3192 3192 3193 3194 3195 3196 3197 3198 3199 3199 3200 3200 3201 3202 3203 3204 3204 3205 3205 3205 3206 3206 3206 3206 3206 3205 3205 3206 3206
3171 3173 3175 3176 3178 3179 3181 3182 3183 3184 3185 3187 3188 3189 3190 3191 3192 3193 3193 3195 3196 3196 3197 3198 3198 3199 3200 3201 3202 3202 3203 3203 3204 3204 3204 3204 3204 3203 3204 3204 3204 3204
3169 3170 3172 3173 3175 3176 3178 3179 3180 3181 3183 3184 3185 3186 3187 3189 3190 3190 3191 3192 3193 3194 3195 3195 3196 3197 3198 3199 3200 3200 3201 3201 3202 3202 3202 3202 3202 3202 3202 3202 3203 3203
3166 3167 3168 3170 3172 3173 3175 3176 3177 3178 3179 3181 3182 3183 3184 3186 3187 3188 3189 3190 3191 3192 3193 3193 3194 3195 3196 3197 3198 3198 3199 3199 3199 3200 3200 3200 3199 3200 3200 3200 3201 3201
3162 3164 3165 3167 3169 3170 3172 3173 3174 3175 3176 3178 3179 3180 3181 3183 3184 3185 3187 3187 3188 3189 3190 3191 3192 3193 3194 3195 3196 3196 3196 3197 3197 3197 3197 3198 3197 3198 3198 3198 3198 3198
3158 3160 3162 3164 3166 3167 3169 3170 3171 3172 3173 3175 3176 3177 3178 3179 3181 3182 3184 3185 3186 3187 3188 3189 3190 3191 3192 3193 3194 3194 3194 3194 3195 3195 3195 3195 3195 3195 3195 3195 3195 3195
3154 3156 3159 3161 3163 3164 3166 3167 3168 3169 3171 3172 3173 3175 3176 3177 3178 3179 3180 3182 3183 3184 3185 3186 3186 3188 3190 3191 3191 3192 3192 3192 3192 3192 3192 3193 3193 3193 3193 3193 3193 3193
3151 3153 3155 3158 3160 3162 3163 3164 3165 3166 3168 3170 3171 3172 3173 3174 3175 3176 3177 3179 3180 3181 3183 3183 3183 3185 3187 3188 3188 3189 3190 3190 3190 3190 3190 3190 3190 3190 3190 3190 3190 3189
3147 3149 3152 3154 3157 3158 3160 3161 3162 3163 3165 3166 3167 3169 3170 3171 3172 3173 3175 3176 3177 3178 3179 3179 3179 3182 3184 3185 3186 3187 3187 3187 3187 3187 3187 3187 3187 3188 3187 3186 3185 3184
3143 3145 3147 3150 3152 3154 3156 3157 3158 3160 3161 3162 3164 3166 3167 3168 3169 3171 3172 3173 3174 3175 3175 3175 3177 3180 3181 3182 3183 3184 3184 3184 3184 3184 3184 3184 3184 3184 3184 3184 3182 3182
3138 3140 3143 3145 3147 3150 3151 3153 3154 3156 3157 3159 3161 3162 3163 3164 3166 3167 3169 3170 3171 3172 3171 3172 3175 3176 3177 3179 3180 3181 3181 3181 3181 3181 3181 3181 3181 3181 3181 3181 3180 3180
3133 3135 3137 3139 3142 3145 3147 3149 3150 3151 3153 3155 3156 3157 3158 3160 3162 3163 3165 3166 3168 3169 3167 3168 3172 3173 3174 3175 3177 3177 3178 3178 3177 3178 3178 3178 3178 3178 3179 3178 3178 3178
3129 3131 3132 3135 3137 3140 3143 3145 3146 3147 3148 3151 3152 3152 3154 3156 3157 3159 3161 3162 3164 3165 3164 3165 3169 3170 3170 3172 3173 3174 3175 3175 3175 3175 3175 3175 3175 3175 3176 3176 3175 3175
3125 3127 3129 3130 3133 3135 3138 3140 3141 3142 3145 3147 3147 3147 3149 3151 3153 3155 3157 3158 3160 3161 3162 3163 3166 3167 3167 3168 3170 3171 3171 3171 3171 3171 3171 3171 3172 3172 3173 3173 3172 3172
3123 3125 3126 3127 3129 3131 3134 3136 3138 3140 3142 3143 3143 3144 3146 3148 3150 3151 3152 3154 3155 3157 3158 3160 3162 3163 3164 3165 3167 3167 3167 3167 3168 3168 3168 3168 3169 3169 3169 3169 3169 3168